Regional Weather Roundup
Issued by NWS

Home | Current Version | Previous Version | Text Only | Print | Product List | Glossary Off
Versions: 1 2 3 4 5 6 7 8 9 10 11 12 13 14 15 16 17 18 19 20 21 22 23 24 25 26 27 28 29 30 31 32 33 34 35 36 37 38 39 40 41 42 43 44 45 46 47 48 49 50

000
ASUS43 KMKX 240200
RWRWI

WISCONSIN REGIONAL WEATHER ROUNDUP
NATIONAL WEATHER SERVICE MILWAUKEE/SULLIVAN WI
900 PM CDT WED MAY 23 2018

NOTE: "FAIR" INDICATES FEW OR NO CLOUDS BELOW 12,000 FEET WITH NO
SIGNIFICANT WEATHER AND/OR OBSTRUCTIONS TO VISIBILITY.

WIZ001-002-006>008-014>016-023>028-240300-
NORTHWEST WISCONSIN

CITY           SKY/WX    TMP DP  RH WIND       PRES   REMARKS
SUPERIOR ARPT  FAIR      52  46  78 CALM      30.08S
ASHLAND        FAIR      59  54  83 CALM      30.09S
HAYWARD        FAIR      68  61  78 CALM      30.10R
SIREN          FAIR      72  59  63 CALM      30.08S
CUMBERLAND     FAIR      70  55  60 S3        30.10S
RICE LAKE      FAIR      72  58  62 SE5       30.11R
CHETEK         FAIR      70  61  72 CALM      30.10R
LADYSMITH      FAIR      72  60  65 SE5       30.13S
EAU CLAIRE     NOT AVBL
MENOMONIE      FAIR      73  60  63 SE3       30.09R
NEW RICHMOND   FAIR      74  59  60 SE3       30.08R
OSCEOLA        FAIR      73  59  61 SE5       30.10R
$$

WIZ003>005-009-010-017-018-240300-
NORTH CENTRAL WISCONSIN

CITY           SKY/WX    TMP DP  RH WIND       PRES   REMARKS
MANITOWISH WTR FAIR      65  60  85 CALM      30.12S
ARBOR VITAE    FAIR      70  58  66 CALM      30.12S
WOODRUFF       FAIR      70  58  66 CALM      30.12S
RHINELANDER    FAIR      71  59  65 SW5       30.14
EAGLE RIVER    FAIR      68  53  58 CALM      30.11S
LAND O LAKES   FAIR      65  55  71 CALM      30.14R
PHILLIPS       FAIR      68  61  76 CALM      30.12S
TOMAHAWK       FAIR      66  58  75 CALM      30.14S HAZE
MEDFORD        FAIR      69  59  71 S3        30.13S
MERRILL        FAIR      69  60  74 CALM      30.13S
$$

WIZ029-030-035-036-043>047-240300-
CENTRAL WISCONSIN

CITY           SKY/WX    TMP DP  RH WIND       PRES   REMARKS
WAUSAU         FAIR      71  61  70 SW3       30.11S
MOSINEE        MOCLDY    70  61  73 CALM      30.15R
MARSHFIELD     FAIR      70  62  76 S5        30.13R
STEVENS POINT  FAIR      69  58  70 CALM      30.14S
WAUPACA        FAIR      73  59  62 CALM      30.13S
WAUTOMA        FAIR      69  64  84 CALM      30.14R
WISC RAPIDS    FAIR      67  62  84 S3        30.14
CAMP DOUGLAS   NOT AVBL
$$

WIZ011>013-019>022-031-037>040-048>050-240300-
NORTHEAST WISCONSIN

CITY           SKY/WX    TMP DP  RH WIND       PRES   REMARKS
ANTIGO         FAIR      66  58  74 SW6       30.15R
SHAWANO        FAIR      73  58  57 S3        30.12S
OCONTO         FAIR      67  59  75 CALM      30.11S
STURGEON BAY   FAIR      62  55  77 S7        30.14S
GREEN BAY      FAIR      71  59  65 S5        30.13S
MANITOWOC      FAIR      58  53  84 S5        30.16S
APPLETON       MOCLDY    70  54  56 S6        30.13S
CLINTONVILLE   FAIR      70  56  61 S3        30.12S
OSHKOSH        FAIR      68  59  73 SE6       30.14R
$$

WIZ032>034-041-042-053>061-240300-
SOUTHWEST WISCONSIN

CITY           SKY/WX    TMP DP  RH WIND       PRES   REMARKS
LA CROSSE      FAIR      75  63  66 S5        30.09S
SPARTA         FAIR      70  63  79 CALM      30.12S
VIROQUA        FAIR      71  62  73 S5        30.14S
BOSCOBEL       FAIR      69  63  81 N3        30.12S
PRAIRIE DU CHI FAIR      74  62  65 E5        30.10S
PLATTEVILLE    FAIR      74  64  71 E5        30.14S
$$

WIZ056-057-062-063-064-067-068-240300-
SOUTH CENTRAL WISCONSIN

CITY           SKY/WX    TMP DP  RH WIND       PRES   REMARKS
REEDSBURG      FAIR      71  62  73 CALM      30.14R
BARABOO/DELLS  FAIR      69  62  79 CALM      30.14R
LONE ROCK      NOT AVBL
MINERAL POINT  FAIR      73  61  64 E3        30.16R
MADISON        FAIR      69  60  73 CALM      30.14R
MIDDLETON      FAIR      74  60  63 SE3       30.15R
WATERTOWN      FAIR      67  63  88 CALM      30.15R
MONROE         FAIR      72  57  60 S5        30.15S
JANESVILLE     FAIR      70  59  68 CALM      30.15R
$$

WIZ051-052-058>065-066-070>072-240300-
SOUTHEAST WISCONSIN

CITY           SKY/WX    TMP DP  RH WIND       PRES   REMARKS
MILWAUKEE      FAIR      64  51  62 S6        30.17R
WAUKESHA       CLEAR     66  48  52 S5        30.18R
MILWAUKEE/TIMM CLEAR     70  43  37 SE5       30.17R
RACINE         FAIR      59  51  75 S3        30.19R
BURLINGTON     FAIR      68  52  56 CALM      30.17R
KENOSHA        FAIR      62  48  60 SE6       30.17R
FOND DU LAC    MOCLDY    69  57  65 SE7       30.15R
SHEBOYGAN      FAIR      61  52  72 S5        30.16S
WEST BEND      FAIR      63  48  59 E3        30.17R
JUNEAU         FAIR      70  60  70 CALM      30.16R
$$

LSZ147-162-240300-
LAKE SUPERIOR

STATION/POSITION TIME  TEMP    WIND        PRES    WAVE
                       AIR SEA DIR/SP/G            HT/PER
                 (UTC) (F)     (DEG/KT/KT) (MB)    (FT/S)
W MID LAKE BUOY  0050   41 36  120/  4/  4 1019.2S   0
DEVILS ISLAND    0100   60     130/  7/  8 1018.4F
SAXON HARBOR     0140   55      40/  2/  2 1017.9F
$$

LMZ867-665-643>646-240300-
LAKE MICHIGAN

STATION/POSITION TIME  TEMP    WIND        PRES    WAVE
                       AIR SEA DIR/SP/G            HT/PER
                 (UTC) (F)     (DEG/KT/KT) (MB)    (FT/S)
N MID LAKE BUOY  0140   40 38  190/  8/ 12 1020.4S
NORTHPORT PIER   0140   55     170/  2/  4 1019.6S
KEWAUNEE LAKESHO 0130   56     180/ 10/ 12 1019.8S
SHEBOYGAN LAKESH 0100   61     190/  9/ 10 1020.9R
PORT WASHINGTON  0140   56     100/  2/  3 1022.4S
ATWATER BUOY     0107   55 50  170/ 10/ 12 1021.3    1
MILWAUKEE LAKESH 0130   56     190/  2/  3   N/A
S MID LAKE BUOY  0050   46 39   80/  4/  6 1022.2S   0
KENOSHA   LAKESH 0100   59                 1021.3
$$

TC  - TEMPERATURE IN CELSIUS
VSB - VISIBILITY IN STATUTE MILES
WCI - WIND CHILL INDEX
HX  - HEAT INDEX





USA.gov is the U.S. government's official web portal to all federal, state and local government web resources and services.